Regional Weather Roundup
Issued by NWS Charleston, SC

Current Version | Previous Version | Graphics & Text | Print | Product List | Glossary On
Versions: 1 2 3 4 5 6 7 8 9 10 11 12 13 14 15 16 17 18 19 20 21 22 23 24 25 26 27 28 29 30 31 32 33 34 35 36 37 38 39 40 41 42 43 44 45 46 47 48 49 50
000 ASUS42 KCHS 020712 RWRCHS REGIONAL WEATHER ROUNDUP NATIONAL WEATHER SERVICE CHARLESTON SC 300 AM EDT TUE JUN 02 2015 NOTE: "FAIR" INDICATES FEW OR NO CLOUDS BELOW 12,000 FEET WITH NO SIGNIFICANT WEATHER AND/OR OBSTRUCTIONS TO VISIBILITY. NOT ALL STATIONS ARE QUALITY CONTROLLED BY THE NATIONAL WEATHER SERVICE. USE DATA WITH CAUTION...ESPECIALLY DEWPOINT OBSERVATIONS. SCZ027-030-031-034>040-042>050-020800- ...SOUTHEAST SOUTH CAROLINA... CITY SKY/WX TMP DP RH WIND PRES REMARKS N CHARLESTON PTCLDY 72 68 87 CALM 30.02F WATERFRONT PAR N/A 76 72 87 CALM 30.00F MOUNT PLEASANT FAIR 70 70 100 CALM 30.02F JOHNS ISLAND SUNNY 72 70 94 CALM 30.03F PINOPOLIS N/A 75 70 83 VRB2 29.93F MONCKS CORNER FAIR 70 66 88 CALM 30.02F SUMMERVILLE FAIR 70 70 100 CALM 30.03F BEAUFORT MCAS MOCLDY 72 68 87 SW3 30.01F BEAUFORT ARPT FAIR 72 72 100 CALM 30.01F HILTON HEAD IS PTCLDY 73 70 88 CALM 30.02F WALTERBORO CLOUDY 70 68 94 CALM 30.03S ALLENDALE FAIR 68 68 100 CALM 30.02S ...SOUTHERN MIDLANDS AND PEE DEE... CITY SKY/WX TMP DP RH WIND PRES REMARKS GEORGETOWN NOT AVBL KINGSTREE NOT AVBL ORANGEBURG CLOUDY 69 66 90 CALM 30.02F BARNWELL FAIR 70 70 100 CALM 30.02F AIKEN LGT RAIN 68 64 88 CALM 30.05F MANNING CLOUDY 73 68 83 SW3 30.02S COLUMBIA CLOUDY 70 67 90 CALM 30.00F SUMTER MOCLDY 71 65 80 S2 30.00F FLORENCE MOCLDY 70 68 93 CALM 30.02S MYRTLE BEACH PTCLDY 73 68 83 CALM 30.04F N MYRTLE BEACH PTCLDY 75 70 84 W5 30.02F $$ GAZ063-065-086>088-099>101-113>116-118-119-134>141-150-020800- ...SOUTHEAST GEORGIA... CITY SKY/WX TMP DP RH WIND PRES REMARKS SAVANNAH ARPT PTCLDY 69 67 93 CALM 30.02F HUNTER AAF PTCLDY 71 69 93 CALM 29.99F FORT STEWART PTCLDY 68 66 94 CALM 30.00F STATESBORO CLOUDY 69 32 25 CALM 30.02F SYLVANIA CLOUDY 70 70 100 CALM 30.04S CLAXTON PTSUNNY 68 68 100 CALM 30.03S FOG ...CSRA...CENTRAL AND FAR SOUTHEAST GEORGIA... CITY SKY/WX TMP DP RH WIND PRES REMARKS THOMSON CLOUDY 69 69 100 CALM 30.06F AUGUSTA-BUSH CLOUDY 68 67 96 CALM 30.00F FOG AUGUSTA-DANIEL LGT RAIN 70 67 90 CALM 30.02F SWAINSBORO FAIR N/A N/A N/A CALM 30.02F VIDALIA MOCLDY 68 68 100 CALM 30.03F EASTMAN PTSUNNY 68 68 100 CALM 30.04F FOG HAZLEHURST CLOUDY 69 69 100 E3 30.01F FOG ALMA MOCLDY 67 66 97 CALM 30.02F FOG WAYCROSS MOCLDY 68 68 100 CALM 30.02F JESUP FAIR 70 68 94 CALM 30.03F BAXLEY FAIR 68 68 100 CALM 30.02F FOG BRUNSWICK PTCLDY 68 64 88 CALM 30.02F SAINT SIMONS NOT AVBL $$ SCZ027-028-034-036>038-045-046-048>050-GAZ119-141-020800- ...LAKE AND SUPPLEMENTAL COASTAL OBSERVATIONS... STATION/POSITION TIME TEMP WIND PRES WAVE SWELL AIR SEA DIR/SP/G HT/PER HT/PER/DIR (UTC) (F) (DEG/KT/KT) (MB) (FT/S) (FT/S/D) UPR LAKE MARION NOT AVBL WINYAH BAY NOT AVBL LAKE MURRAY 0600 73 250/ 5/ 6 1016.3F ACE BASIN NERRS NOT AVBL FORT PULASKI 0612 75 81 N/A SAPELO ISLAND 0600 73 290/ 1 1017.0S $$ ANZ835-935-AMZ111-154-330-350-352-354-370-450-454-472-020800- ...C-MAN AND BUOY OBSERVATIONS... STATION/POSITION TIME TEMP WIND PRES WAVE SWELL AIR SEA DIR/SP/G HT/PER HT/PER/DIR (UTC) (F) (DEG/KT/KT) (MB) (FT/S) (FT/S/D) BUOY 41004 0650 79 80 210/ 8/ 10 1016.4F 3/ 8 3/ 8 BUOY 41008 0650 77 78 220/ 10/ 14 1016.6F 3/ 9 2/100/ 9 FOLLY BEACH CMAN 0700 78 220/ 7/ 10 1016.6F CAPERS NEARSHORE 0608 78 220/ 8/ 10 1016.9F FRIPP NEARSHORE 0600 79 210/ 12/ 14 1016.7F STATION/POSITION TIME TEMP WIND PRES WAVE SWELL AIR SEA DIR/SP/G HT/PER HT/PER/DIR (UTC) (F) (DEG/KT/KT) (MB) (FT/S) (FT/S/D) 5E ST. MARYS GA 0621 80 N/A 2/ 8 FRYING PAN BUOY 0650 79 76 220/ 8/ 10 1017.4F 3/ 9 3/110/ 9 BUOY 41025 0650 77 80 200/ 14/ 16 1017.2F 3/ 8 3/100/ 8 CAPE LOOKOUT NC 0700 76 200/ 8/ 10 1016.8F BUOY 41002 0650 76 76 220/ 2/ 4 1018.0F 3/ 8 3/ 80/ 8 BUOY 41010 0620 79 80 180/ 4/ 4 1017.4F ST AUGUSTINE FL 0700 74 77 240/ 3/ 4 1016.7F $$

USA.gov is the U.S. government's official web portal to all federal, state and local government web resources and services.